Regional Weather Roundup
Issued by NWS Sterling, VA

Home | Current Version | Previous Version | Graphics & Text | Print | Product List | Glossary On
Versions: 1 2 3 4 5 6 7 8 9 10 11 12 13 14 15 16 17 18 19 20 21 22 23 24 25 26 27 28 29 30 31 32 33 34 35 36 37 38 39 40 41 42 43 44 45 46 47 48 49 50
000
ASUS41 KLWX 262210
RWRLWX

REGIONAL WEATHER ROUNDUP
NATIONAL WEATHER SERVICE BALTIMORE MD/WASHINGTON DC
500 PM EST FRI DEC 26 2014

Note: "FAIR" indicates few or no clouds below 12,000 feet
with no significant weather and/or obstructions to visibility.
 TC=TEMPERATURE CELSIUS

 * =Non NWS site. Station does not report precipitation (e.g. rain,
    snow, etc.), thunder, or fog.

DCZ001-MDZ009-015-VAZ040>042-051-053>054-262300-
WASHINGTON METRO

CITY           SKY/WX    TMP DP  RH WIND       PRES   REMARKS
WASHINGTON NAT PTCLDY    48  33  56 S8        30.26S
DULLES         PTCLDY    44  32  62 S3        30.25R
ANDREWS AFB    CLEAR     47  30  50 SW6       30.25R
FT BELVOIR     CLEAR     47  33  57 S2        30.27R
QUANTICO       CLEAR     47  32  56 SW5       30.27S
COLLEGE PARK*  CLEAR     50  32  50 CALM      30.25S
LEESBURG*      CLEAR     46  34  61 S6        30.26R
MANASSAS*      CLEAR     50  34  53 CALM      30.25S
GAITHERSBURG*  CLEAR     46  28  49 S3        30.27F

$$

MDZ006>007-011-014-262300-
BALTIMORE METRO

CITY           SKY/WX    TMP DP  RH WIND       PRES   REMARKS
BWI AIRPORT    PTCLDY    49  30  48 S5        30.24R
MD SCIENCE CTR   N/A     46  35  65 MISG      30.23R
MARTIN STATE   CLEAR     43  37  81 SE3       30.26S
ANNAPOLIS      CLEAR     44  33  65 S5        30.26R
FORT MEADE*    CLEAR     45  32  61 SW5       30.27R

$$

MDZ012-015-019>023-262300-
MARYLAND EASTERN SHORE

CITY           SKY/WX    TMP DP  RH WIND       PRES   REMARKS
OCEAN CITY     CLEAR     44  37  76 SW6       30.28R
SALISBURY      CLEAR     48  31  51 SW6       30.28R
BAY BRIDGE AP*   N/A     45  32  61 S6        30.26S
CAMBRIDGE*     CLEAR     46  34  61 CALM      30.27R
EASTON*        CLEAR     46  36  66 CALM      30.30R

$$

MDZ017>025-262300-
SOUTHERN MARYLAND

CITY           SKY/WX    TMP DP  RH WIND       PRES   REMARKS
PATUXENT RIVER PTCLDY    43  33  68 S3        30.27S
ST INIGOES     CLEAR     45  32  60 SE5       30.26F
LEONARDTOWN*   CLEAR     45  32  61 SW3       30.28R

$$

MDZ003>005-262300-
NORTH CENTRAL MARYLAND

CITY           SKY/WX    TMP DP  RH WIND       PRES   REMARKS
FREDERICK*     NOT AVBL
HAGERSTOWN APT CLEAR     45  30  55 S3        30.22S
WESTMINSTER*   PTCLDY    46  30  53 SW3       30.22F

$$

MDZ501>502-262300-
WESTERN MARYLAND

CITY           SKY/WX    TMP DP  RH WIND       PRES   REMARKS
OAKLAND*       CLEAR     39  16  38 SW7       30.19R
CUMBERLAND*    CLEAR     50  28  43 CALM      30.24R

$$

VAZ025>031-262300-
SHENANDOAH VALLEY

CITY           SKY/WX    TMP DP  RH WIND       PRES   REMARKS
WINCHESTER*    CLEAR     45  28  53 CALM      30.23R
FRONT ROYAL*   FAIR      46  32  57 CALM      30.21S
LURAY*         FAIR      52  32  46 S3        30.22S
NEW MARKET*    FAIR      44  35  68 CALM      30.22S
STAUNTON*      CLEAR     51  26  37 CALM      30.25R
WAYNESBORO*    FAIR      49  21  32 MISG      30.23R

$$

WVZ021-048>050-054>055-262300-
EASTERN WEST VIRGINIA PANHANDLE

CITY           SKY/WX    TMP DP  RH WIND       PRES   REMARKS
MARTINSBURG    CLEAR     48  25  40 S3        30.23R
PETERSBURG*    PTCLDY    45  31  58 CALM      30.21S

$$

VAZ036>039-050-262300-
CENTRAL FOOTHILLS

CITY           SKY/WX    TMP DP  RH WIND       PRES   REMARKS
CHARLOTTESVILL CLEAR     47  30  51 S5        30.25R
CULPEPER*      CLEAR     46  34  61 CALM      30.26S
ORANGE*        CLEAR     48  32  53 S5        30.27S
GORDONSVILLE*  FAIR      45  32  61 CALM      30.26R
WARRENTON*     FAIR      45  36  72 CALM      30.25S

$$

VAZ055>057-262300-
NORTH AND CENTRAL PIEDMONT

CITY           SKY/WX    TMP DP  RH WIND       PRES   REMARKS
FREDERICKSBRG* CLEAR     49  33  53 S3        30.25S
STAFFORD*      CLEAR     49  30  47 CALM      30.30S

$$

NCZ024-NYZ072-PAZ021-071-VAZ022-071-262300-
OTHER REGIONAL OBSERVATIONS

CITY           SKY/WX    TMP DP  RH WIND       PRES   REMARKS
NEW YORK CITY  CLEAR     48  27  44 CALM      30.22R
PHILADELPHIA   PTCLDY    46  31  55 W8        30.25R
PITTSBURGH     PTCLDY    47  31  53 SW6       30.20R
ROANOKE        PTCLDY    56  18  22 CALM      30.27R
RICHMOND       PTCLDY    52  33  48 SE3       30.26S
RALEIGH        PTCLDY    53  36  52 CALM      30.29S

$$

ANZ530>537-262300-
MARINE OBSERVATIONS

STATION/POSITION TIME  TEMP    WIND        PRES
                       AIR SEA DIR/SP/G
                 (UTC) (F)     (DEG/KT/KT) (MB)
THOMAS PT LIGHT  2200   44 43  180/ 13/ 13 1025.7R
BALT KEY BRIDGE  2200   45      80/  5/  5 1024.0F
COVE POINT       2200   43     190/  7/  8 1025.0R
LEWISETTA        2200   45 45  130/  3/  3 1024.8F
SOLOMONS ISLAND  2200      44                N/A
PINEY POINT      2200          150/  7/  8   N/A

$$




USA.gov is the U.S. government's official web portal to all federal, state and local government web resources and services.